{"data":{"norad_id":64461,"intl_designator":"2025-130Z","name":"STARLINK-34418","alt_names":[],"object_type":"PAYLOAD","status":"ACTIVE","operator":null,"country":"US","launch_date":"2025-06-18","launch_site_code":"AFETR","launch_vehicle":null,"mission":null,"orbit_class":"UNKNOWN","rcs_meters":null,"size_class":null,"mass_kg":null,"dimensions":null,"purposes":["comms"],"wikipedia_slug":null,"has_3d_model":false,"image_url":null,"decayed_at":null,"tle_current":{"epoch":"2026-09-20T23:24:47.056032Z","epoch_age_seconds":90120,"freshness":"FRESH","line1":"1 64461U 25130Z   26263.97554463  .00018005  00000+0  54262-3 0  9999","line2":"2 64461  53.1538 259.2218 0002287  80.0000 280.1260 15.34407231 70639","mean_motion":15.34407231,"eccentricity":0.0002287,"inclination_deg":53.1538,"raan_deg":259.2218,"arg_perigee_deg":80,"mean_anomaly_deg":280.126,"bstar":0.00054262,"rev_number":7063,"period_min":93.847315817296,"perigee_km":461.11725298792,"apogee_km":464.24624348337,"semimajor_km":6840.8187482356,"source":"CELESTRAK","updated_at":"2026-09-21T09:00:35.356842Z"}}}